| time (UTC) | temp F | wind direction | speed knots | gust knots | rain 1hr in | rain 24hr in | rain mn in | humidity % | barometer mb |
| 20260831000103 | 66 | 243 | 5.2 | 10.4 | 0.00 | 0.00 | 0.00 | 89 | 1012.6 |
| 20260830234606 | 66 | 283 | 4.3 | 10.4 | 0.00 | 0.00 | 0.00 | 89 | 1012.5 |
| 20260830233103 | 66 | 255 | 5.2 | 12.2 | 0.00 | 0.00 | 0.00 | 89 | 1012.7 |
| 20260830231555 | 67 | 245 | 7.0 | 14.8 | 0.00 | 0.00 | 0.00 | 90 | 1012.8 |
| 20260830230054 | 67 | 269 | 8.7 | 15.6 | 0.00 | 0.00 | 0.00 | 89 | 1013.0 |
| 20260830224554 | 68 | 270 | 7.0 | 14.8 | 0.00 | 0.00 | 0.00 | 87 | 1013.0 |
| 20260830223053 | 68 | 253 | 6.1 | 14.8 | 0.00 | 0.00 | 0.00 | 87 | 1012.8 |
| 20260830221555 | 68 | 247 | 5.2 | 11.3 | 0.00 | 0.00 | 0.00 | 86 | 1012.8 |
| 20260830214552 | 69 | 245 | 6.1 | 13.0 | 0.00 | 0.00 | 0.00 | 85 | 1012.9 |
| 20260830213052 | 69 | 229 | 6.1 | 13.0 | 0.00 | 0.00 | 0.00 | 85 | 1012.9 |
| 20260830211553 | 69 | 257 | 4.3 | 13.9 | 0.00 | 0.00 | 0.00 | 86 | 1012.7 |
| 20260830210050 | 69 | 226 | 4.3 | 9.6 | 0.00 | 0.00 | 0.00 | 86 | 1012.9 |
| 20260830204557 | 70 | 264 | 6.1 | 13.9 | 0.00 | 0.00 | 0.00 | 85 | 1012.9 |
| 20260830203049 | 70 | 264 | 6.1 | 12.2 | 0.00 | 0.00 | 0.00 | 85 | 1013.0 |
| 20260830201557 | 69 | 259 | 6.1 | 13.0 | 0.00 | 0.00 | 0.00 | 85 | 1013.0 |
| 20260830200048 | 69 | 224 | 8.7 | 14.8 | 0.00 | 0.00 | 0.00 | 85 | 1013.3 |
| 20260830194549 | 70 | 229 | 7.8 | 16.5 | 0.00 | 0.00 | 0.00 | 85 | 1013.4 |
| 20260830193043 | 72 | 233 | 8.7 | 17.4 | 0.00 | 0.00 | 0.00 | 82 | 1013.4 |
| 20260830191615 | 71 | 238 | 7.0 | 19.1 | 0.00 | 0.00 | 0.00 | 83 | 1013.3 |
| 20260830190054 | 72 | 240 | 8.7 | 17.4 | 0.00 | 0.00 | 0.00 | 82 | 1013.6 |
| 20260830184540 | 72 | 261 | 7.8 | 16.5 | 0.00 | 0.00 | 0.00 | 81 | 1013.7 |
| 20260830183038 | 72 | 237 | 10.4 | 15.6 | 0.00 | 0.00 | 0.00 | 81 | 1013.8 |
| 20260830181537 | 72 | 275 | 8.7 | 13.9 | 0.00 | 0.00 | 0.00 | 79 | 1014.0 |
| 20260830180039 | 72 | 206 | 9.6 | 15.6 | 0.00 | 0.00 | 0.00 | 79 | 1014.2 |
| 20260830174536 | 72 | 250 | 8.7 | 17.4 | 0.00 | 0.00 | 0.00 | 79 | 1014.4 |
| 20260830173036 | 72 | 274 | 9.6 | 17.4 | 0.00 | 0.00 | 0.00 | 74 | 1014.5 |
| 20260830171532 | 73 | 232 | 7.8 | 14.8 | 0.00 | 0.00 | 0.00 | 75 | 1014.6 |
| 20260830170030 | 72 | 283 | 6.1 | 13.9 | 0.00 | 0.00 | 0.00 | 74 | 1014.7 |
| 20260830164528 | 72 | 337 | 7.8 | 15.6 | 0.00 | 0.00 | 0.00 | 73 | 1014.9 |
| 20260830163036 | 72 | 222 | 7.8 | 12.2 | 0.00 | 0.00 | 0.00 | 75 | 1015.1 |
| 20260830161523 | 72 | 240 | 6.1 | 10.4 | 0.00 | 0.00 | 0.00 | 77 | 1015.3 |
| 20260830160030 | 72 | 255 | 6.1 | 11.3 | 0.00 | 0.00 | 0.00 | 73 | 1015.3 |
| 20260830154523 | 71 | 247 | 6.1 | 12.2 | 0.00 | 0.00 | 0.00 | 76 | 1015.8 |
| 20260830153016 | 70 | 219 | 6.1 | 12.2 | 0.00 | 0.00 | 0.00 | 77 | 1016.2 |
| 20260830151514 | 70 | 305 | 6.1 | 10.4 | 0.00 | 0.00 | 0.00 | 78 | 1016.3 |
| 20260830150019 | 70 | 266 | 4.3 | 10.4 | 0.00 | 0.00 | 0.00 | 78 | 1016.6 |
| 20260830144519 | 69 | 250 | 5.2 | 9.6 | 0.00 | 0.00 | 0.00 | 77 | 1016.9 |
| 20260830143006 | 69 | 270 | 4.3 | 9.6 | 0.00 | 0.00 | 0.00 | 77 | 1017.1 |
| 20260830141505 | 69 | 250 | 3.5 | 8.7 | 0.00 | 0.00 | 0.00 | 78 | 1017.0 |
| 20260830140001 | 68 | 251 | 5.2 | 10.4 | 0.00 | 0.00 | 0.00 | 79 | 1017.1 |
| 20260830134559 | 68 | 290 | 4.3 | 12.2 | 0.00 | 0.00 | 0.00 | 81 | 1017.3 |
| 20260830133105 | 67 | 246 | 5.2 | 10.4 | 0.00 | 0.00 | 0.00 | 79 | 1017.4 |
| 20260830131558 | 67 | 268 | 4.3 | 10.4 | 0.00 | 0.00 | 0.00 | 79 | 1017.4 |
| 20260830130106 | 68 | 256 | 3.5 | 7.8 | 0.00 | 0.00 | 0.00 | 80 | 1017.4 |
| 20260830124554 | 67 | 266 | 2.6 | 9.6 | 0.00 | 0.00 | 0.00 | 81 | 1017.5 |
| 20260830123054 | 67 | 219 | 3.5 | 7.8 | 0.00 | 0.00 | 0.00 | 80 | 1017.6 |
| 20260830121549 | 65 | 266 | 2.6 | 7.0 | 0.00 | 0.00 | 0.00 | 82 | 1017.7 |
| 20260830120101 | 64 | 291 | 3.5 | 7.0 | 0.00 | 0.00 | 0.00 | 83 | 1017.9 |
| 20260830114541 | 63 | 262 | 2.6 | 7.0 | 0.00 | 0.00 | 0.00 | 86 | 1018.1 |
| 20260830113039 | 62 | 250 | 2.6 | 7.0 | 0.00 | 0.00 | 0.00 | 87 | 1018.1 |
| 20260830111541 | 61 | 273 | 1.7 | 4.3 | 0.00 | 0.00 | 0.00 | 87 | 1018.2 |
| 20260830110039 | 62 | 260 | 3.5 | 7.0 | 0.00 | 0.00 | 0.00 | 85 | 1018.2 |
| 20260830104535 | 61 | 253 | 0.9 | 4.3 | 0.00 | 0.00 | 0.00 | 87 | 1018.4 |
| 20260830103032 | 59 | 313 | 0.9 | 2.6 | 0.00 | 0.00 | 0.00 | 88 | 1018.3 |
| 20260830101529 | 58 | 278 | 0.9 | 3.5 | 0.00 | 0.00 | 0.00 | 88 | 1018.4 |
| 20260830100031 | 57 | 321 | 0.0 | 2.6 | 0.00 | 0.00 | 0.00 | 88 | 1018.4 |
| 20260830094536 | 57 | 327 | 0.0 | 2.6 | 0.00 | 0.00 | 0.00 | 87 | 1018.4 |
| 20260830093033 | 57 | 215 | 0.0 | 4.3 | 0.00 | 0.00 | 0.00 | 87 | 1018.3 |
| 20260830091527 | 56 | 262 | 0.9 | 4.3 | 0.00 | 0.00 | 0.00 | 89 | 1018.3 |
| 20260830090025 | 56 | 262 | 0.9 | 3.5 | 0.00 | 0.00 | 0.00 | 89 | 1018.3 |
| 20260830084523 | 56 | 261 | 0.9 | 3.5 | 0.00 | 0.00 | 0.00 | 88 | 1018.3 |
| 20260830083028 | 57 | 276 | 1.7 | 4.3 | 0.00 | 0.00 | 0.00 | 87 | 1018.2 |
| 20260830081532 | 56 | 252 | 0.0 | 3.5 | 0.00 | 0.00 | 0.00 | 88 | 1018.3 |
| 20260830080019 | 56 | 247 | 1.7 | 4.3 | 0.00 | 0.00 | 0.00 | 87 | 1018.2 |
| 20260830074524 | 57 | 265 | 0.9 | 4.3 | 0.00 | 0.03 | 0.00 | 87 | 1018.1 |
| 20260830073017 | 56 | 256 | 1.7 | 3.5 | 0.00 | 0.03 | 0.00 | 88 | 1018.1 |
| 20260830071516 | 57 | 307 | 0.9 | 3.5 | 0.00 | 0.03 | 0.00 | 88 | 1018.2 |
| 20260830070016 | 57 | 274 | 0.9 | 2.6 | 0.00 | 0.03 | 0.00 | 88 | 1018.0 |
| 20260830064514 | 57 | 255 | 0.9 | 3.5 | 0.00 | 0.09 | 0.00 | 88 | 1018.2 |
| 20260830063012 | 57 | 280 | 0.9 | 3.5 | 0.00 | 0.09 | 0.00 | 87 | 1018.3 |
| 20260830061514 | 57 | 271 | 1.7 | 3.5 | 0.00 | 0.09 | 0.00 | 86 | 1018.2 |
| 20260830060022 | 57 | 281 | 0.9 | 3.5 | 0.00 | 0.09 | 0.00 | 86 | 1018.3 |
| 20260830054507 | 58 | 286 | 0.9 | 3.5 | 0.00 | 0.09 | 0.00 | 86 | 1018.5 |
| 20260830053005 | 58 | 266 | 0.9 | 2.6 | 0.00 | 0.09 | 0.00 | 87 | 1018.6 |
| 20260830051504 | 58 | 247 | 0.9 | 3.5 | 0.00 | 0.09 | 0.00 | 86 | 1018.8 |
| 20260830050004 | 58 | 315 | 0.0 | 1.7 | 0.00 | 0.09 | 0.00 | 86 | 1018.8 |
| 20260830044502 | 57 | 263 | 0.9 | 2.6 | 0.00 | 0.10 | 0.00 | 86 | 1018.9 |
| 20260830043102 | 57 | 274 | 0.9 | 2.6 | 0.00 | 0.10 | 0.00 | 86 | 1019.0 |
| 20260830041606 | 56 | 266 | 0.0 | 1.7 | 0.00 | 0.10 | 0.00 | 87 | 1018.9 |
| 20260830040057 | 56 | 274 | 0.0 | 0.9 | 0.00 | 0.10 | 0.00 | 87 | 1018.9 |
| 20260830034559 | 55 | 271 | 0.0 | 0.0 | 0.00 | 0.11 | 0.00 | 87 | 1018.9 |
| 20260830033053 | 56 | 264 | 0.0 | 0.9 | 0.00 | 0.11 | 0.00 | 87 | 1019.0 |
| 20260830031550 | 56 | 264 | 0.0 | 0.9 | 0.00 | 0.11 | 0.00 | 87 | 1018.7 |
| 20260830030048 | 57 | 264 | 0.0 | 0.9 | 0.00 | 0.11 | 0.00 | 86 | 1018.6 |
| 20260830024600 | 57 | 264 | 0.0 | 1.7 | 0.00 | 0.12 | 0.11 | 85 | 1018.5 |
| 20260830023145 | 57 | 271 | 0.0 | 1.7 | 0.00 | 0.12 | 0.11 | 85 | 1018.4 |
| 20260830021543 | 57 | 280 | 0.0 | 1.7 | 0.00 | 0.12 | 0.11 | 84 | 1018.3 |
| 20260830020048 | 58 | 266 | 0.0 | 0.9 | 0.00 | 0.12 | 0.11 | 84 | 1018.4 |
| 20260830014540 | 58 | 274 | 0.0 | 0.9 | 0.00 | 0.12 | 0.11 | 85 | 1018.5 |
| 20260830013042 | 58 | 270 | 0.0 | 0.9 | 0.00 | 0.12 | 0.11 | 85 | 1018.5 |
| 20260830011541 | 58 | 261 | 0.0 | 0.9 | 0.00 | 0.12 | 0.11 | 84 | 1018.4 |
| 20260830010033 | 58 | 260 | 0.0 | 0.9 | 0.00 | 0.12 | 0.11 | 84 | 1018.2 |
| 20260830004541 | 59 | 261 | 0.0 | 0.9 | 0.00 | 0.12 | 0.11 | 83 | 1018.0 |
| 20260830003046 | 59 | 261 | 0.0 | 0.9 | 0.00 | 0.12 | 0.11 | 81 | 1017.9 |
| 20260830001534 | 60 | 271 | 0.0 | 0.9 | 0.00 | 0.12 | 0.11 | 80 | 1018.0 |